Time,TemperatureF,DewpointF,PressureIn,WindDirection,WindDirectionDegrees,WindSpeedMPH,WindSpeedGustMPH,Humidity,HourlyPrecipIn,Conditions,Clouds,dailyrainin,SoftwareType,DateUTC
2013-03-03 00:01:00,60.0,33.0,30.12,WNW,296,3.0,11.0,36,0.00,,,0.00,,2013-03-03 08:01:00,
2013-03-03 00:11:00,60.0,33.0,30.12,WNW,296,3.0,11.0,36,0.00,,,0.00,,2013-03-03 08:11:00,
2013-03-03 00:21:00,60.0,36.0,30.13,West,275,8.0,14.0,41,0.00,,,0.00,,2013-03-03 08:21:00,
2013-03-03 00:31:00,61.0,37.0,30.12,WNW,283,7.0,20.0,41,0.00,,,0.00,,2013-03-03 08:31:00,
2013-03-03 00:41:00,61.0,37.0,30.12,WNW,283,7.0,20.0,41,0.00,,,0.00,,2013-03-03 08:41:00,
2013-03-03 00:53:00,61.0,36.0,30.13,SW,225,5.0,24.0,39,0.00,,,0.00,,2013-03-03 08:53:00,
2013-03-03 01:01:00,61.0,35.0,30.13,SSW,203,9.0,17.0,37,0.00,,,0.00,,2013-03-03 09:01:00,
2013-03-03 01:11:00,61.0,35.0,30.13,SSW,203,9.0,17.0,37,0.00,,,0.00,,2013-03-03 09:11:00,
2013-03-03 01:21:00,61.0,32.0,30.11,West,272,3.0,8.0,33,0.00,,,0.00,,2013-03-03 09:21:00,
2013-03-03 01:31:00,61.0,31.0,30.11,West,280,2.0,11.0,32,0.00,,,0.00,,2013-03-03 09:31:00,
2013-03-03 01:41:00,61.0,31.0,30.11,West,280,2.0,11.0,32,0.00,,,0.00,,2013-03-03 09:41:00,
2013-03-03 01:52:00,60.0,28.0,30.13,SW,232,8.0,13.0,30,0.00,,,0.00,,2013-03-03 09:52:00,
2013-03-03 02:01:00,61.0,29.0,30.13,SSW,198,2.0,17.0,29,0.00,,,0.00,,2013-03-03 10:01:00,
2013-03-03 02:11:00,61.0,29.0,30.13,SSW,198,2.0,17.0,29,0.00,,,0.00,,2013-03-03 10:11:00,
2013-03-03 02:21:00,61.0,28.0,30.13,WNW,295,9.0,14.0,28,0.00,,,0.00,,2013-03-03 10:21:00,
2013-03-03 02:31:00,60.0,24.0,30.12,WNW,290,9.0,17.0,25,0.00,,,0.00,,2013-03-03 10:31:00,
2013-03-03 02:41:00,60.0,24.0,30.12,WNW,290,9.0,17.0,25,0.00,,,0.00,,2013-03-03 10:41:00,
2013-03-03 02:52:00,60.0,23.0,30.10,WNW,290,8.0,14.0,24,0.00,,,0.00,,2013-03-03 10:52:00,
2013-03-03 03:01:00,59.0,23.0,30.10,WNW,293,10.0,16.0,25,0.00,,,0.00,,2013-03-03 11:01:00,
2013-03-03 03:11:00,59.0,23.0,30.10,WNW,293,10.0,16.0,25,0.00,,,0.00,,2013-03-03 11:11:00,
2013-03-03 03:21:00,59.0,24.0,30.09,WNW,293,9.0,13.0,26,0.00,,,0.00,,2013-03-03 11:21:00,
2013-03-03 03:31:00,59.0,24.0,30.09,WNW,294,9.0,16.0,26,0.00,,,0.00,,2013-03-03 11:31:00,
2013-03-03 03:41:00,59.0,24.0,30.09,WNW,294,9.0,16.0,26,0.00,,,0.00,,2013-03-03 11:41:00,
2013-03-03 03:52:00,59.0,23.0,30.08,WNW,300,10.0,17.0,25,0.00,,,0.00,,2013-03-03 11:52:00,
2013-03-03 04:01:00,59.0,24.0,30.08,WNW,299,12.0,21.0,26,0.00,,,0.00,,2013-03-03 12:01:00,
2013-03-03 04:11:00,59.0,24.0,30.08,WNW,299,12.0,21.0,26,0.00,,,0.00,,2013-03-03 12:11:00,
2013-03-03 04:21:00,59.0,25.0,30.07,WNW,299,12.0,23.0,27,0.00,,,0.00,,2013-03-03 12:21:00,
2013-03-03 04:31:00,58.0,25.0,30.07,WNW,297,12.0,22.0,28,0.00,,,0.00,,2013-03-03 12:31:00,
2013-03-03 04:42:00,58.0,25.0,30.07,WNW,297,12.0,22.0,28,0.00,,,0.00,,2013-03-03 12:42:00,
2013-03-03 04:52:00,58.0,23.0,30.07,West,278,5.0,18.0,26,0.00,,,0.00,,2013-03-03 12:52:00,
2013-03-03 05:01:00,57.0,23.0,30.08,WSW,255,3.0,14.0,27,0.00,,,0.00,,2013-03-03 13:01:00,
2013-03-03 05:11:00,57.0,23.0,30.08,WSW,255,3.0,14.0,27,0.00,,,0.00,,2013-03-03 13:11:00,
2013-03-03 05:21:00,56.0,24.0,30.08,SSW,201,3.0,8.0,29,0.00,,,0.00,,2013-03-03 13:21:00,
2013-03-03 05:31:00,56.0,23.0,30.08,WSW,257,1.0,6.0,28,0.00,,,0.00,,2013-03-03 13:31:00,
2013-03-03 05:41:00,56.0,23.0,30.08,WSW,257,1.0,6.0,28,0.00,,,0.00,,2013-03-03 13:41:00,
2013-03-03 05:52:00,55.0,23.0,30.08,West,273,5.0,10.0,28,0.00,,,0.00,,2013-03-03 13:52:00,
2013-03-03 06:01:00,56.0,23.0,30.08,West,266,8.0,13.0,28,0.00,,,0.00,,2013-03-03 14:01:00,
2013-03-03 06:11:00,56.0,23.0,30.08,West,266,8.0,13.0,28,0.00,,,0.00,,2013-03-03 14:11:00,
2013-03-03 06:21:00,56.0,23.0,30.07,South,191,1.0,9.0,27,0.00,,,0.00,,2013-03-03 14:21:00,
2013-03-03 06:31:00,56.0,23.0,30.06,SW,216,2.0,5.0,27,0.00,,,0.00,,2013-03-03 14:31:00,
2013-03-03 06:42:00,56.0,23.0,30.06,SW,216,2.0,5.0,27,0.00,,,0.00,,2013-03-03 14:42:00,
2013-03-03 06:52:00,55.0,22.0,30.06,West,259,3.0,7.0,27,0.00,,,0.00,,2013-03-03 14:52:00,
2013-03-03 07:01:00,55.0,23.0,30.07,West,260,2.0,5.0,29,0.00,,,0.00,,2013-03-03 15:01:00,
2013-03-03 07:11:00,55.0,23.0,30.07,West,260,2.0,5.0,29,0.00,,,0.00,,2013-03-03 15:11:00,
2013-03-03 07:21:00,56.0,23.0,30.07,WNW,284,11.0,19.0,28,0.00,,,0.00,,2013-03-03 15:21:00,
2013-03-03 07:31:00,56.0,23.0,30.07,WNW,284,11.0,19.0,28,0.00,,,0.00,,2013-03-03 15:31:00,
2013-03-03 07:41:00,56.0,23.0,30.07,WNW,284,11.0,19.0,28,0.00,,,0.00,,2013-03-03 15:41:00,
2013-03-03 07:52:00,58.0,25.0,30.07,WNW,289,11.0,16.0,28,0.00,,,0.00,,2013-03-03 15:52:00,
2013-03-03 08:01:00,58.0,25.0,30.07,WNW,288,10.0,19.0,28,0.00,,,0.00,,2013-03-03 16:01:00,
2013-03-03 08:12:00,58.0,25.0,30.07,WNW,288,10.0,19.0,28,0.00,,,0.00,,2013-03-03 16:12:00,
2013-03-03 08:21:00,59.0,25.0,30.08,WNW,298,7.0,14.0,27,0.00,,,0.00,,2013-03-03 16:21:00,
2013-03-03 08:31:00,59.0,25.0,30.08,WNW,293,13.0,23.0,27,0.00,,,0.00,,2013-03-03 16:31:00,
2013-03-03 08:41:00,59.0,25.0,30.08,WNW,293,13.0,23.0,27,0.00,,,0.00,,2013-03-03 16:41:00,
2013-03-03 08:52:00,60.0,25.0,30.06,WNW,294,11.0,23.0,26,0.00,,,0.00,,2013-03-03 16:52:00,
2013-03-03 09:01:00,61.0,26.0,30.06,WNW,292,11.0,21.0,26,0.00,,,0.00,,2013-03-03 17:01:00,
2013-03-03 09:11:00,61.0,26.0,30.06,WNW,292,15.0,24.0,26,0.00,,,0.00,,2013-03-03 17:11:00,
2013-03-03 09:21:00,61.0,26.0,30.06,WNW,292,15.0,24.0,26,0.00,,,0.00,,2013-03-03 17:21:00,
2013-03-03 09:32:00,61.0,26.0,30.06,WNW,292,15.0,24.0,26,0.00,,,0.00,,2013-03-03 17:32:00,
2013-03-03 09:41:00,61.0,26.0,30.06,WNW,292,15.0,24.0,26,0.00,,,0.00,,2013-03-03 17:41:00,
2013-03-03 09:52:00,63.0,29.0,30.05,West,278,12.0,21.0,27,0.00,,,0.00,,2013-03-03 17:52:00,
2013-03-03 10:01:00,63.0,29.0,30.05,WSW,255,12.0,21.0,27,0.00,,,0.00,,2013-03-03 18:01:00,
2013-03-03 10:11:00,63.0,29.0,30.05,WSW,255,12.0,21.0,27,0.00,,,0.00,,2013-03-03 18:11:00,
2013-03-03 10:21:00,64.0,30.0,30.04,West,269,12.0,19.0,28,0.00,,,0.00,,2013-03-03 18:21:00,
2013-03-03 10:31:00,65.0,31.0,30.04,WNW,296,12.0,24.0,28,0.00,,,0.00,,2013-03-03 18:31:00,
2013-03-03 10:41:00,65.0,31.0,30.04,WNW,296,12.0,24.0,28,0.00,,,0.00,,2013-03-03 18:41:00,
2013-03-03 10:52:00,65.0,33.0,30.03,WNW,284,14.0,22.0,30,0.00,,,0.00,,2013-03-03 18:52:00,
2013-03-03 11:01:00,65.0,34.0,30.03,WNW,286,14.0,22.0,31,0.00,,,0.00,,2013-03-03 19:01:00,
2013-03-03 11:11:00,65.0,34.0,30.02,WNW,292,18.0,31.0,32,0.00,,,0.00,,2013-03-03 19:11:00,
2013-03-03 11:21:00,65.0,34.0,30.02,WNW,292,18.0,31.0,32,0.00,,,0.00,,2013-03-03 19:21:00,
2013-03-03 11:31:00,65.0,35.0,30.01,WNW,296,19.0,27.0,33,0.00,,,0.00,,2013-03-03 19:31:00,
2013-03-03 11:42:00,65.0,35.0,30.01,WNW,296,19.0,27.0,33,0.00,,,0.00,,2013-03-03 19:42:00,
2013-03-03 11:52:00,65.0,35.0,30.01,WNW,293,16.0,31.0,33,0.00,,,0.00,,2013-03-03 19:52:00,
2013-03-03 12:01:00,66.0,35.0,30.00,WNW,295,19.0,29.0,32,0.00,,,0.00,,2013-03-03 20:01:00,
2013-03-03 12:11:00,66.0,35.0,30.00,WNW,295,19.0,29.0,32,0.00,,,0.00,,2013-03-03 20:11:00,
2013-03-03 12:21:00,65.0,35.0,29.98,WNW,295,18.0,33.0,33,0.00,,,0.00,,2013-03-03 20:21:00,
2013-03-03 12:32:00,66.0,36.0,29.98,WNW,301,17.0,25.0,33,0.00,,,0.00,,2013-03-03 20:32:00,
2013-03-03 12:42:00,66.0,36.0,29.98,WNW,301,17.0,25.0,33,0.00,,,0.00,,2013-03-03 20:42:00,
2013-03-03 12:52:00,65.0,35.0,29.98,WNW,297,18.0,31.0,33,0.00,,,0.00,,2013-03-03 20:52:00,
2013-03-03 13:01:00,65.0,36.0,29.97,WNW,299,21.0,33.0,34,0.00,,,0.00,,2013-03-03 21:01:00,
2013-03-03 13:11:00,65.0,36.0,29.97,WNW,299,21.0,33.0,34,0.00,,,0.00,,2013-03-03 21:11:00,
2013-03-03 13:21:00,65.0,37.0,29.97,WNW,300,18.0,30.0,36,0.00,,,0.00,,2013-03-03 21:21:00,
2013-03-03 13:31:00,64.0,37.0,29.97,WNW,300,21.0,33.0,37,0.00,,,0.00,,2013-03-03 21:31:00,
2013-03-03 13:41:00,64.0,37.0,29.97,WNW,300,21.0,33.0,37,0.00,,,0.00,,2013-03-03 21:41:00,
2013-03-03 13:52:00,63.0,37.0,29.97,WNW,295,24.0,34.0,38,0.00,,,0.00,,2013-03-03 21:52:00,
2013-03-03 14:01:00,63.0,38.0,29.97,WNW,298,22.0,33.0,39,0.00,,,0.00,,2013-03-03 22:01:00,
2013-03-03 14:11:00,63.0,38.0,29.97,WNW,298,22.0,33.0,39,0.00,,,0.00,,2013-03-03 22:11:00,
2013-03-03 14:21:00,63.0,38.0,29.97,WNW,300,18.0,33.0,40,0.00,,,0.00,,2013-03-03 22:21:00,
2013-03-03 14:31:00,62.0,37.0,29.97,WNW,290,20.0,33.0,40,0.00,,,0.00,,2013-03-03 22:31:00,
2013-03-03 14:41:00,62.0,37.0,29.97,WNW,290,20.0,33.0,40,0.00,,,0.00,,2013-03-03 22:41:00,
2013-03-03 14:52:00,63.0,38.0,29.97,WNW,295,21.0,31.0,40,0.00,,,0.00,,2013-03-03 22:52:00,
2013-03-03 15:01:00,63.0,38.0,29.96,WNW,298,19.0,30.0,40,0.00,,,0.00,,2013-03-03 23:01:00,
2013-03-03 15:11:00,63.0,38.0,29.96,WNW,298,19.0,30.0,40,0.00,,,0.00,,2013-03-03 23:11:00,
2013-03-03 15:21:00,63.0,38.0,29.97,WNW,289,16.0,26.0,40,0.00,,,0.00,,2013-03-03 23:21:00,
2013-03-03 15:31:00,62.0,38.0,29.97,WNW,297,16.0,30.0,41,0.00,,,0.00,,2013-03-03 23:31:00,
2013-03-03 15:41:00,62.0,38.0,29.97,WNW,297,16.0,30.0,41,0.00,,,0.00,,2013-03-03 23:41:00,
2013-03-03 15:52:00,62.0,37.0,29.96,WNW,294,16.0,26.0,40,0.00,,,0.00,,2013-03-03 23:52:00,
2013-03-03 16:01:00,63.0,38.0,29.97,WNW,299,14.0,27.0,40,0.00,,,0.00,,2013-03-04 00:01:00,
2013-03-03 16:11:00,63.0,38.0,29.97,WNW,299,14.0,27.0,40,0.00,,,0.00,,2013-03-04 00:11:00,
2013-03-03 16:21:00,62.0,38.0,29.97,WNW,289,15.0,26.0,41,0.00,,,0.00,,2013-03-04 00:21:00,
2013-03-03 16:31:00,61.0,38.0,29.97,WNW,282,14.0,24.0,42,0.00,,,0.00,,2013-03-04 00:31:00,
2013-03-03 16:41:00,61.0,38.0,29.97,WNW,282,14.0,24.0,42,0.00,,,0.00,,2013-03-04 00:41:00,
2013-03-03 16:52:00,60.0,37.0,29.97,WNW,301,13.0,23.0,43,0.00,,,0.00,,2013-03-04 00:52:00,
2013-03-03 17:01:00,59.0,37.0,29.97,WNW,297,15.0,29.0,44,0.00,,,0.00,,2013-03-04 01:01:00,
2013-03-03 17:11:00,59.0,37.0,29.97,WNW,297,15.0,29.0,44,0.00,,,0.00,,2013-03-04 01:11:00,
2013-03-03 17:21:00,59.0,38.0,29.96,WNW,295,17.0,26.0,46,0.00,,,0.00,,2013-03-04 01:21:00,
2013-03-03 17:31:00,58.0,38.0,29.96,WNW,298,19.0,29.0,47,0.00,,,0.00,,2013-03-04 01:31:00,
2013-03-03 17:41:00,58.0,38.0,29.96,WNW,298,19.0,29.0,47,0.00,,,0.00,,2013-03-04 01:41:00,
2013-03-03 17:52:00,57.0,38.0,29.97,WNW,301,17.0,29.0,48,0.00,,,0.00,,2013-03-04 01:52:00,
2013-03-03 18:01:00,57.0,38.0,29.98,WNW,294,17.0,29.0,49,0.00,,,0.00,,2013-03-04 02:01:00,
2013-03-03 18:11:00,56.0,38.0,29.99,WNW,296,20.0,29.0,50,0.00,,,0.00,,2013-03-04 02:11:00,
2013-03-03 18:22:00,56.0,38.0,29.99,WNW,296,20.0,29.0,50,0.00,,,0.00,,2013-03-04 02:22:00,
2013-03-03 18:31:00,56.0,38.0,29.99,WNW,298,17.0,26.0,50,0.00,,,0.00,,2013-03-04 02:31:00,
2013-03-03 18:41:00,56.0,38.0,29.99,WNW,298,17.0,26.0,50,0.00,,,0.00,,2013-03-04 02:41:00,
2013-03-03 18:52:00,56.0,38.0,30.00,WNW,294,14.0,27.0,51,0.00,,,0.00,,2013-03-04 02:52:00,
2013-03-03 19:01:00,56.0,38.0,30.01,West,263,8.0,17.0,51,0.00,,,0.00,,2013-03-04 03:01:00,
2013-03-03 19:11:00,56.0,38.0,30.01,West,263,8.0,17.0,51,0.00,,,0.00,,2013-03-04 03:11:00,
2013-03-03 19:21:00,55.0,38.0,29.98,West,269,5.0,13.0,52,0.00,,,0.00,,2013-03-04 03:21:00,
2013-03-03 19:31:00,55.0,38.0,29.98,West,269,5.0,13.0,52,0.00,,,0.00,,2013-03-04 03:31:00,
2013-03-03 19:41:00,55.0,38.0,29.99,West,261,8.0,16.0,53,0.00,,,0.00,,2013-03-04 03:41:00,
2013-03-03 19:52:00,55.0,38.0,29.99,West,261,8.0,16.0,53,0.00,,,0.00,,2013-03-04 03:52:00,
2013-03-03 20:01:00,55.0,38.0,29.99,WSW,258,10.0,18.0,53,0.00,,,0.00,,2013-03-04 04:01:00,
2013-03-03 20:11:00,55.0,38.0,29.99,WSW,258,10.0,18.0,53,0.00,,,0.00,,2013-03-04 04:11:00,
2013-03-03 20:21:00,55.0,38.0,29.98,WSW,249,11.0,20.0,53,0.00,,,0.00,,2013-03-04 04:21:00,
2013-03-03 20:31:00,55.0,39.0,29.99,WSW,241,10.0,20.0,54,0.00,,,0.00,,2013-03-04 04:31:00,
2013-03-03 20:41:00,55.0,39.0,29.99,WSW,241,10.0,20.0,54,0.00,,,0.00,,2013-03-04 04:41:00,
2013-03-03 20:52:00,54.0,38.0,29.98,WSW,241,11.0,17.0,55,0.00,,,0.00,,2013-03-04 04:52:00,
2013-03-03 21:01:00,54.0,38.0,29.99,SW,229,11.0,22.0,55,0.00,,,0.00,,2013-03-04 05:01:00,
2013-03-03 21:11:00,54.0,38.0,29.99,SW,229,11.0,22.0,55,0.00,,,0.00,,2013-03-04 05:11:00,
2013-03-03 21:22:00,54.0,38.0,29.99,SW,236,9.0,16.0,55,0.00,,,0.00,,2013-03-04 05:22:00,
2013-03-03 21:31:00,54.0,38.0,29.99,SW,232,8.0,14.0,55,0.00,,,0.00,,2013-03-04 05:31:00,
2013-03-03 21:42:00,54.0,38.0,29.98,SW,229,13.0,20.0,54,0.00,,,0.00,,2013-03-04 05:42:00,
2013-03-03 21:52:00,54.0,38.0,29.98,SW,229,13.0,20.0,54,0.00,,,0.00,,2013-03-04 05:52:00,
2013-03-03 22:01:00,54.0,38.0,29.98,SW,227,15.0,25.0,55,0.00,,,0.00,,2013-03-04 06:01:00,
2013-03-03 22:11:00,54.0,38.0,29.98,SW,227,15.0,25.0,55,0.00,,,0.00,,2013-03-04 06:11:00,
2013-03-03 22:21:00,53.0,39.0,29.96,WSW,256,10.0,22.0,58,0.00,,,0.00,,2013-03-04 06:21:00,
2013-03-03 22:31:00,53.0,38.0,29.95,West,261,14.0,23.0,57,0.00,,,0.00,,2013-03-04 06:31:00,
2013-03-03 22:42:00,53.0,38.0,29.95,West,261,14.0,23.0,57,0.00,,,0.00,,2013-03-04 06:42:00,
2013-03-03 22:51:00,54.0,38.0,29.94,WNW,288,17.0,31.0,54,0.00,,,0.00,,2013-03-04 06:51:00,
2013-03-03 23:01:00,54.0,38.0,29.91,WNW,296,25.0,38.0,54,0.00,,,0.00,,2013-03-04 07:01:00,
2013-03-03 23:11:00,54.0,38.0,29.91,WNW,296,25.0,38.0,54,0.00,,,0.00,,2013-03-04 07:11:00,
2013-03-03 23:21:00,54.0,37.0,29.91,WNW,301,20.0,41.0,53,0.00,,,0.00,,2013-03-04 07:21:00,
2013-03-03 23:31:00,54.0,37.0,29.90,WNW,301,22.0,40.0,53,0.00,,,0.00,,2013-03-04 07:31:00,
2013-03-03 23:41:00,54.0,37.0,29.90,WNW,301,22.0,40.0,53,0.00,,,0.00,,2013-03-04 07:41:00,
2013-03-03 23:52:00,54.0,37.0,29.90,NW,306,22.0,40.0,53,0.00,,,0.00,,2013-03-04 07:52:00,